Simultaneous Nadir Overpasses (SNOs) Predictions

Prediction of SNOs between METOP-C and LANDSAT-8 Satellite Orbit:

Table of predicted SNOs for the next 14.0 days since TLE Epoch: 4/30/2022
Index Date (METOP-C) Time (METOP-C) Lat,Lon (METOP-C) SZA (METOP-C ) Date (LANDSAT-8) Time (LANDSAT-8) Lat,Lon (LANDSAT-8) SZA (LANDSAT-8 ) Distance(km) Time Diff (sec)
1 05/02/2022 18:38:18 81.15, -59.18 67.86 05/02/2022 18:38:39 81.16, -59.11 67.88 1.17 21
2 05/02/2022 19:28:56 -81.18, 108.85 112.07 05/02/2022 19:28:05 -81.18, 108.86 112.09 0.21 51
3 05/05/2022 14:12:39 81.15, 7.07 67.03 05/05/2022 14:12:56 81.15, 7.21 67.06 2.48 17
4 05/05/2022 15:03:17 -81.17, 175.13 112.89 05/05/2022 15:02:22 -81.17, 175.20 112.90 1.23 55
5 05/08/2022 09:46:59 81.15, 73.63 66.28 05/08/2022 09:47:12 81.15, 73.62 66.28 0.62 13
6 05/08/2022 10:37:37 -81.18,-118.27 113.63 05/08/2022 10:36:38 -81.17,-118.38 113.68 1.99 59
7 05/11/2022 05:21:18 81.16, 140.11 65.56 05/11/2022 05:21:26 81.15, 140.09 65.55 0.74 8
8 05/11/2022 06:11:56 -81.18, -51.73 114.35 05/11/2022 06:10:52 -81.17, -51.88 114.40 2.72 64
9 05/14/2022 00:55:38 81.16,-153.47 64.86 05/14/2022 00:55:40 81.16,-153.36 64.87 1.93 2



Historial Predications of SNOs between METOP-C and LANDSAT-8
